This demonstration page uses our WeatherBlox Daily Observations layout. Learn more.

Hourly Observations for November 4, 2018

Temp ( °F °C ) Dew Point ( °F °C ) Humidity (%) Winds ( mph kmh ) Pressure ( in mb ) Visibility ( mi km ) Precip ( " mm )
12:15 am 00:15 Cloudy 40 4.2 38 3.6 96 96 N 13 20 30.09 1019 10 16.09344 0 0
12:35 am 00:35 Cloudy 40 4.2 38 3.5 95 95 NNW 13 20 30.09 1019 10 16.09344 0 0
12:55 am 00:55 Cloudy 40 4.2 38 3.5 95 95 NNW 9 15 30.09 1019 10 16.09344 0 0
1:15 am 01:15 Cloudy 39 4 38 3.2 95 95 NNW 12 19 30.09 1019 10 16.09344 0 0
1:35 am 01:35 Cloudy 39 4 37 3 93 93 NNW 10 17 30.09 1019 10 16.09344 0 0
1:55 am 01:55 Cloudy 39 4 37 3 93 93 NNW 14 22 30.06 1018 10 16.09344 0 0
1:15 am 01:15 Cloudy 39 4 37 3 93 93 NNW 14 22 30.06 1018 10 16.09344 0 0
1:35 am 01:35 Cloudy 39 3.9 36 2.3 89 89 N 14 22 30.06 1018 10 16.09344 0 0
1:55 am 01:55 Cloudy 39 3.7 37 2.5 92 92 NNW 10 17 30.06 1018 10 16.09344 0 0
2:15 am 02:15 Cloudy 39 3.8 36 2.4 91 91 NNW 13 20 30.09 1019 10 16.09344 0 0
2:35 am 02:35 Cloudy 39 3.7 36 2 89 89 NNW 14 22 30.09 1019 10 16.09344 0 0
2:55 am 02:55 Cloudy 39 3.7 36 2.1 89 89 NNW 12 19 30.09 1019 10 16.09344 0 0
3:15 am 03:15 Cloudy 39 3.7 37 2.5 92 92 NNW 13 20 30.09 1019 10 16.09344 0 0
3:35 am 03:35 Cloudy 39 3.7 36 2.3 91 91 NNW 9 15 30.09 1019 10 16.09344 0 0
3:55 am 03:55 Cloudy 39 3.7 36 2.2 90 90 N 13 20 30.09 1019 10 16.09344 0 0
4:15 am 04:15 Cloudy 38 3.6 35 1.7 88 88 NNW 15 24 30.09 1019 10 16.09344 0 0
4:35 am 04:35 Cloudy 38 3.5 34 1.3 86 86 N 15 24 30.09 1019 10 16.09344 0 0
4:55 am 04:55 Cloudy 38 3.5 34 1.2 85 85 NNW 10 17 30.09 1019 10 16.09344 0 0
5:15 am 05:15 Cloudy 38 3.5 34 1.1 84 84 NNW 13 20 30.09 1019 10 16.09344 0 0
5:35 am 05:35 Cloudy 38 3.3 34 1.1 86 86 NNW 10 17 30.09 1019 10 16.09344 0 0
5:55 am 05:55 Cloudy 38 3.2 34 1.3 88 88 NNW 8 13 30.09 1019 10 16.09344 0 0
6:15 am 06:15 Cloudy 38 3.2 34 1.2 87 87 NNW 7 11 30.09 1019 10 16.09344 0 0
6:35 am 06:35 Cloudy 38 3.3 33 0.7 83 83 NNW 10 17 30.09 1019 10 16.09344 0 0
6:55 am 06:55 Cloudy 38 3.3 32 0 79 79 NNW 14 22 30.06 1018 10 16.09344 0 0
7:15 am 07:15 Cloudy 37 3 32 0 81 81 NNW 12 19 30.06 1018 10 16.09344 0 0
7:35 am 07:35 Cloudy 37 3 32 0 81 81 NNW 10 17 30.06 1018 10 16.09344 0 0
7:55 am 07:55 Cloudy 38 3.3 32 0 79 79 NNW 9 15 30.06 1018 10 16.09344 0 0
8:15 am 08:15 Cloudy 38 3.3 32 0 79 79 NNW 7 11 30.06 1018 10 16.09344 0 0
8:35 am 08:35 Cloudy 38 3.6 32 0 78 78 NNW 7 11 30.06 1018 10 16.09344 0 0
8:55 am 08:55 Cloudy 39 4 32 0 75 75 NW 9 15 30.06 1018 10 16.09344 0 0
9:15 am 09:15 Cloudy 41 4.8 33 0.3 73 73 W 10 17 30.06 1018 10 16.09344 0 0
9:35 am 09:35 Cloudy 40 4.7 32 0.1 72 72 NW 9 15 30.06 1018 10 16.09344 0 0
9:55 am 09:55 Cloudy 42 5.3 32 -0.2 68 68 NNW 9 15 30.06 1018 10 16.09344 0 0
10:15 am 10:15 Cloudy 42 5.3 31 -0.6 66 66 NW 12 19 30.03 1017 10 16.09344 0 0
10:35 am 10:35 Cloudy 43 5.9 32 -0.2 65 65 NNW 8 13 30 1016 10 16.09344 0 0
10:55 am 10:55 Cloudy 42 5.6 31 -0.7 64 64 NW 9 15 30.03 1017 10 16.09344 0 0
11:15 am 11:15 Mostly Cloudy 43 6.2 31 -0.5 63 63 W 10 17 30 1016 10 16.09344 0 0
11:35 am 11:35 Cloudy 44 6.5 32 -0.2 63 63 W 10 17 29.97 1015 10 16.09344 0 0
11:55 am 11:55 Cloudy 44 6.5 32 -0.2 63 63 WNW 8 13 29.97 1015 10 16.09344 0 0
12:15 pm 12:15 Mostly Cloudy 45 7.3 32 -0.1 60 60 NW 9 15 29.97 1015 10 16.09344 0 0
12:35 pm 12:35 Partly Cloudy 44 6.9 31 -0.5 60 60 W 5 7 29.94 1014 10 16.09344 0 0
12:55 pm 12:55 Partly Cloudy 46 7.7 32 -0.2 58 58 WSW 12 19 29.91 1013 10 16.09344 0 0
1:15 pm 13:15 Sunny 47 8.2 32 -0.1 56 56 W 9 15 29.88 1012 10 16.09344 0 0
1:35 pm 13:35 Sunny 47 8.3 32 0 56 56 W 9 15 29.85 1011 10 16.09344 0 0
1:55 pm 13:55 Sunny 48 8.7 31 -0.3 54 54 W 9 15 29.83 1010 10 16.09344 0 0
2:15 pm 14:15 Sunny 49 9.3 31 -0.3 51 51 WSW 5 7 29.83 1010 10 16.09344 0 0
2:35 pm 14:35 Sunny 50 9.8 31 -0.3 50 50 W 5 7 29.83 1010 10 16.09344 0 0
2:55 pm 14:55 Sunny 50 9.9 31 -0.3 49 49 WSW 7 11 29.8 1009 10 16.09344 0 0
3:15 pm 15:15 Sunny 50 9.9 32 -0.2 50 50 WSW 7 11 29.8 1009 10 16.09344 0 0
3:35 pm 15:35 Sunny 50 10 31 -0.4 49 49 S 6 9 29.8 1009 10 16.09344 0 0
3:55 pm 15:55 Sunny 50 9.9 32 -0.2 50 50 SW 7 11 29.8 1009 10 16.09344 0 0
4:15 pm 16:15 Sunny 50 10 32 0 50 50 SSW 6 9 29.8 1009 10 16.09344 0 0
4:35 pm 16:35 Sunny 50 9.8 32 0 51 51 S 8 13 29.8 1009 10 16.09344 0 0
4:55 pm 16:55 Sunny 49 9.3 32 0 53 53 S 7 11 29.8 1009 10 16.09344 0 0
5:15 pm 17:15 Sunny 46 7.9 32 0 58 58 S 7 11 29.77 1008 10 16.09344 0 0
5:35 pm 17:35 Clear 44 6.4 32 0 64 64 SSE 5 7 29.8 1009 10 16.09344 0 0
5:55 pm 17:55 Clear 41 5 32 -0.2 69 69 SSE 7 11 29.8 1009 10 16.09344 0 0
6:15 pm 18:15 Mostly Cloudy 41 5 32 0 70 70 SE 8 13 29.8 1009 10 16.09344 0 0
6:35 pm 18:35 Cloudy 42 5.8 32 0 67 67 SE 9 15 29.8 1009 10 16.09344 0 0
6:55 pm 18:55 Cloudy 42 5.8 32 0 67 67 SE 9 15 29.8 1009 10 16.09344 0 0
7:15 pm 19:15 Cloudy 43 6.1 33 0.3 67 67 SE 12 19 29.77 1008 10 16.09344 0 0
7:35 pm 19:35 Cloudy 43 6.2 33 0.5 67 67 SE 10 17 29.77 1008 10 16.09344 0 0
7:55 pm 19:55 Cloudy 43 6.3 33 0.5 67 67 SE 13 20 29.77 1008 10 16.09344 0 0
8:15 pm 20:15 Cloudy 44 6.5 33 0.6 66 66 SSE 12 19 29.77 1008 10 16.09344 0 0
8:35 pm 20:35 Cloudy 44 6.5 33 0.6 66 66 SSE 9 15 29.77 1008 10 16.09344 0 0
8:55 pm 20:55 Cloudy 44 6.7 33 0.6 65 65 S 7 11 29.74 1007 10 16.09344 0 0
9:15 pm 21:15 Cloudy 45 7 33 0.6 64 64 SSE 9 15 29.74 1007 10 16.09344 0 0
9:35 pm 21:35 Cloudy with Light Drizzle 45 7.1 34 1 65 65 SSE 9 15 29.74 1007 10 16.09344 0 0
9:55 pm 21:55 Cloudy with Light Drizzle 43 6.3 36 2 74 74 SSE 13 20 29.77 1008 10 16.09344 0 0
10:15 pm 22:15 Cloudy with Light Drizzle 43 6 36 2.4 78 78 SSE 9 15 29.77 1008 10 16.09344 0 0
10:35 pm 22:35 Cloudy with Light Drizzle 43 6 37 2.6 79 79 SSE 12 19 29.74 1007 10 16.09344 0 0
10:55 pm 22:55 Cloudy with Light Drizzle 43 6.1 37 2.5 78 78 SE 14 22 29.74 1007 10 16.09344 0 0
11:15 pm 23:15 Cloudy 44 6.5 37 2.5 76 76 SSE 13 20 29.71 1006 10 16.09344 0 0
11:35 pm 23:35 Cloudy with Light Rain 44 6.5 37 2.5 76 76 SSE 14 22 29.68 1005 10 16.09344 0 0
11:55 pm 23:55 Cloudy with Light Drizzle 43 6 37 2.8 80 80 SSE 12 19 29.68 1005 10 16.09344 0 0

Powered by AerisWeather